Weather History for Quakertown, PA

Change the Weather History Date:

Friday, November 8, 2013

  Actual Average (KABE) Record (KABE)
Temperature  
Mean Temperature 42 °F 45 °F  
Max Temperature 48 °F 56 °F 74 °F (1975)
Min Temperature 33 °F 35 °F 20 °F (1960)
Degree Days  
Heating Degree Days 24 20  
Month to date heating degree days 149  
Since 1 July heating degree days 660  
Cooling Degree Days 0 0  
Month to date cooling degree days 0  
Year to date cooling degree days 757  
Moisture  
Dew Point 27 °F    
Average Humidity 60    
Maximum Humidity 75    
Minimum Humidity 43    
Precipitation  
Precipitation 0.00 in 0.10 in 3.35 in (1972)
Month to date precipitation 0.87  
Year to date precipitation 39.14  
Snow  
Snow 0.00 in 0.00 in 0.50 in (1910)
Month to date snowfall 0.0  
Since 1 July snowfall 0.0  
Since 1 September snowfall 0.0  
Snow Depth -    
Sea Level Pressure  
Sea Level Pressure 30.11 in    
Wind  
Wind Speed 7 mph (WSW)    
Max Wind Speed 17 mph    
Max Gust Speed 25 mph    
Visibility 10 miles    
Events      
T = Trace of Precipitation, MM = Missing Value Source: NWS Daily Summary

Daily Weather History Graph

Daily Weather History Graph

Search for Another Location

Airport:

Trip Planner

Search our weather history database for the weather conditions in past years. The results will help you decide how hot, cold, wet, or windy it might be!

Date:

Astronomy

Nov. 08, 2013 Rise Set
Actual Time 6:39 AM EST 4:50 PM EST
Civil Twilight 6:10 AM EST 5:19 PM EST
Nautical Twilight 5:38 AM EST 5:51 PM EST
Astronomical Twilight 5:06 AM EST 6:23 PM EST
Moon 11:33 AM EST (11/8) 10:08 PM EST (11/8)
Length of Visible Light 11h 08m
Length of Day
10h 10m
Waxing Crescent, 33% of the Moon is Illuminated
Nov 8
Waxing Crescent
Nov 10
First Quarter
Nov 17
Full
Nov 25
Last Quarter
Dec 2
New

Hourly Weather History & Observations

Time (EST) Temp. Windchill Dew Point Humidity Pressure Visibility Wind Dir Wind Speed Gust Speed Precip Events Conditions
12:15 AM 41.0 °F 36.4 °F 28.4 °F 61% 29.99 in 10.0 mi West 6.9 mph - N/A   Overcast
12:35 AM 41.0 °F 35.8 °F 28.4 °F 61% 30.00 in 10.0 mi West 8.1 mph - N/A   Overcast
12:55 AM 41.0 °F 36.4 °F 28.4 °F 61% 30.00 in 10.0 mi WSW 6.9 mph - N/A   Mostly Cloudy
1:15 AM 39.2 °F 32.5 °F 28.4 °F 65% 30.00 in 10.0 mi West 10.4 mph - N/A   Mostly Cloudy
1:35 AM 41.0 °F 34.7 °F 28.4 °F 61% 30.01 in 10.0 mi West 10.4 mph - N/A   Overcast
1:55 AM 41.0 °F 35.8 °F 26.6 °F 57% 30.01 in 10.0 mi WSW 8.1 mph - N/A   Overcast
2:15 AM 39.2 °F 34.2 °F 26.6 °F 61% 30.02 in 10.0 mi WSW 6.9 mph - N/A   Overcast
2:35 AM 39.2 °F 35.9 °F 26.6 °F 61% 30.01 in 10.0 mi WSW 4.6 mph - N/A   Mostly Cloudy
2:55 AM 37.4 °F 34.9 °F 26.6 °F 65% 30.01 in 10.0 mi WSW 3.5 mph - N/A   Partly Cloudy
3:15 AM 37.4 °F 34.9 °F 26.6 °F 65% 30.01 in 10.0 mi WSW 3.5 mph - N/A   Clear
3:35 AM 37.4 °F 33.8 °F 26.6 °F 65% 30.02 in 10.0 mi WSW 4.6 mph - N/A   Clear
3:55 AM 37.4 °F 33.8 °F 24.8 °F 60% 30.02 in 10.0 mi SW 4.6 mph - N/A   Clear
4:15 AM 37.4 °F 32.8 °F 24.8 °F 60% 30.03 in 10.0 mi SW 5.8 mph - N/A   Clear
4:35 AM 35.6 °F 30.7 °F 24.8 °F 65% 30.03 in 10.0 mi SW 5.8 mph - N/A   Clear
4:55 AM 35.6 °F 32.8 °F 24.8 °F 65% 30.03 in 10.0 mi SSW 3.5 mph - N/A   Clear
5:15 AM 35.6 °F 32.8 °F 24.8 °F 65% 30.03 in 10.0 mi SSW 3.5 mph - N/A   Clear
5:35 AM 35.6 °F 31.7 °F 24.8 °F 65% 30.04 in 10.0 mi SW 4.6 mph - N/A   Clear
5:55 AM 35.6 °F 30.7 °F 24.8 °F 65% 30.04 in 10.0 mi SW 5.8 mph - N/A   Clear
6:15 AM 35.6 °F 30.7 °F 24.8 °F 65% 30.04 in 10.0 mi SW 5.8 mph - N/A   Clear
6:35 AM 35.6 °F 30.7 °F 26.6 °F 70% 30.05 in 10.0 mi SW 5.8 mph - N/A   Clear
6:55 AM 35.6 °F 30.7 °F 26.6 °F 70% 30.06 in 10.0 mi SW 5.8 mph - N/A   Clear
7:15 AM 37.4 °F 32.1 °F 26.6 °F 65% 30.07 in 10.0 mi SW 6.9 mph - N/A   Scattered Clouds
7:35 AM 37.4 °F 32.1 °F 28.4 °F 70% 30.07 in 10.0 mi SW 6.9 mph - N/A   Overcast
7:55 AM 39.2 °F 33.6 °F 30.2 °F 70% 30.07 in 10.0 mi WSW 8.1 mph - N/A   Overcast
8:15 AM 39.2 °F 35.0 °F 30.2 °F 70% 30.08 in 10.0 mi WSW 5.8 mph - N/A   Mostly Cloudy
8:35 AM 41.0 °F 35.8 °F 32.0 °F 70% 30.08 in 10.0 mi SW 8.1 mph - N/A   Partly Cloudy
8:55 AM 41.0 °F 36.4 °F 32.0 °F 70% 30.08 in 10.0 mi WSW 6.9 mph - N/A   Mostly Cloudy
9:15 AM 41.0 °F 35.2 °F 32.0 °F 70% 30.08 in 10.0 mi SW 9.2 mph - N/A   Mostly Cloudy
9:35 AM 42.8 °F 37.5 °F 32.0 °F 66% 30.08 in 10.0 mi SW 9.2 mph 18.4 mph N/A   Clear
9:55 AM 44.6 °F 38.8 °F 32.0 °F 61% 30.08 in 10.0 mi SW 11.5 mph - N/A   Mostly Cloudy
10:15 AM 44.6 °F 39.7 °F 30.2 °F 57% 30.08 in 10.0 mi West 9.2 mph 20.7 mph N/A   Scattered Clouds
10:35 AM 44.6 °F 39.7 °F 30.2 °F 57% 30.09 in 10.0 mi WSW 9.2 mph 16.1 mph N/A   Scattered Clouds
10:55 AM 44.6 °F 38.4 °F 28.4 °F 53% 30.09 in 10.0 mi West 12.7 mph 24.2 mph N/A   Mostly Cloudy
11:15 AM 46.4 °F 40.1 °F 28.4 °F 50% 30.09 in 10.0 mi West 15.0 mph 24.2 mph N/A   Mostly Cloudy
11:35 AM 44.6 °F 38.4 °F 28.4 °F 53% 30.09 in 10.0 mi West 12.7 mph 24.2 mph N/A   Mostly Cloudy
11:55 AM 46.4 °F 39.5 °F 28.4 °F 50% 30.09 in 10.0 mi West 17.3 mph 23.0 mph N/A   Scattered Clouds
12:15 PM 46.4 °F 39.8 °F 28.4 °F 50% 30.09 in 10.0 mi West 16.1 mph 25.3 mph N/A   Mostly Cloudy
12:35 PM 46.4 °F 39.8 °F 26.6 °F 46% 30.08 in 10.0 mi West 16.1 mph 25.3 mph N/A   Scattered Clouds
12:55 PM 46.4 °F 40.7 °F 26.6 °F 46% 30.08 in 10.0 mi West 12.7 mph 21.9 mph N/A   Mostly Cloudy
1:15 PM 44.6 °F 38.4 °F 28.4 °F 53% 30.10 in 8.0 mi West 12.7 mph 19.6 mph N/A   Mostly Cloudy
1:35 PM 44.6 °F 39.2 °F 28.4 °F 53% 30.09 in 10.0 mi West 10.4 mph 18.4 mph N/A   Mostly Cloudy
1:55 PM 46.4 °F 41.5 °F 26.6 °F 46% 30.10 in 10.0 mi West 10.4 mph 20.7 mph N/A   Scattered Clouds
2:15 PM 46.4 °F 40.7 °F 26.6 °F 46% 30.10 in 10.0 mi West 12.7 mph 21.9 mph N/A   Mostly Cloudy
2:35 PM 48.2 °F - 26.6 °F 43% 30.10 in 10.0 mi West 12.7 mph 19.6 mph N/A   Partly Cloudy
2:55 PM 46.4 °F 41.5 °F 24.8 °F 43% 30.11 in 10.0 mi West 10.4 mph 18.4 mph N/A   Partly Cloudy
3:15 PM 46.4 °F 42.9 °F 26.6 °F 46% 30.12 in 10.0 mi WSW 6.9 mph 17.3 mph N/A   Mostly Cloudy
3:35 PM 46.4 °F 41.5 °F 26.6 °F 46% 30.12 in 10.0 mi WSW 10.4 mph 19.6 mph N/A   Mostly Cloudy
3:55 PM 46.4 °F 41.1 °F 24.8 °F 43% 30.13 in 10.0 mi WNW 11.5 mph - N/A   Mostly Cloudy
4:15 PM 44.6 °F 39.2 °F 26.6 °F 49% 30.14 in 10.0 mi West 10.4 mph 17.3 mph N/A   Partly Cloudy
4:35 PM 44.6 °F 41.4 °F 26.6 °F 49% 30.14 in 10.0 mi West 5.8 mph - N/A   Clear
4:55 PM 42.8 °F 38.0 °F 28.4 °F 57% 30.15 in 10.0 mi West 8.1 mph - N/A   Clear
5:15 PM 41.0 °F 39.0 °F 28.4 °F 61% 30.16 in 10.0 mi West 3.5 mph - N/A   Partly Cloudy
5:35 PM 41.0 °F 39.0 °F 28.4 °F 61% 30.17 in 10.0 mi West 3.5 mph - N/A   Clear
5:55 PM 41.0 °F 38.0 °F 28.4 °F 61% 30.17 in 10.0 mi West 4.6 mph - N/A   Clear
6:15 PM 41.0 °F 38.0 °F 28.4 °F 61% 30.18 in 10.0 mi WNW 4.6 mph - N/A   Clear
6:35 PM 39.2 °F - 28.4 °F 65% 30.19 in 10.0 mi Calm Calm - N/A   Clear
6:55 PM 39.2 °F - 28.4 °F 65% 30.20 in 10.0 mi Calm Calm - N/A   Clear
7:15 PM 39.2 °F 35.9 °F 26.6 °F 61% 30.21 in 10.0 mi West 4.6 mph - N/A   Scattered Clouds
7:35 PM 39.2 °F 35.9 °F 28.4 °F 65% 30.20 in 10.0 mi West 4.6 mph - N/A   Mostly Cloudy
7:55 PM 39.2 °F 35.9 °F 28.4 °F 65% 30.21 in 10.0 mi WSW 4.6 mph - N/A   Mostly Cloudy
8:15 PM 39.2 °F 37.0 °F 26.6 °F 61% 30.21 in 10.0 mi WSW 3.5 mph - N/A   Partly Cloudy
8:35 PM 39.2 °F - 26.6 °F 61% 30.22 in 10.0 mi Calm Calm - N/A   Clear
8:55 PM 39.2 °F 35.9 °F 26.6 °F 61% 30.23 in 10.0 mi WSW 4.6 mph - N/A   Unknown
9:15 PM 39.2 °F 37.0 °F 26.6 °F 61% 30.23 in 10.0 mi WSW 3.5 mph - N/A   Clear
9:35 PM 39.2 °F 37.0 °F 26.6 °F 61% 30.24 in 10.0 mi SW 3.5 mph - N/A   Clear
9:55 PM 37.4 °F 33.8 °F 28.4 °F 70% 30.24 in 10.0 mi WSW 4.6 mph - N/A   Scattered Clouds
10:15 PM 37.4 °F - 26.6 °F 65% 30.24 in 10.0 mi Calm Calm - N/A   Partly Cloudy
10:35 PM 37.4 °F - 26.6 °F 65% 30.25 in 10.0 mi Calm Calm - N/A   Scattered Clouds
10:55 PM 37.4 °F - 26.6 °F 65% 30.25 in 10.0 mi Calm Calm - N/A   Mostly Cloudy
11:15 PM 35.6 °F - 26.6 °F 70% 30.25 in 10.0 mi Calm Calm - N/A   Partly Cloudy
11:35 PM 35.6 °F - 26.6 °F 70% 30.25 in 10.0 mi Calm Calm - N/A   Clear
11:55 PM 33.8 °F 30.8 °F 26.6 °F 75% 30.26 in 10.0 mi SW 3.5 mph - N/A   Clear